• In Belarus
  • List of Countries
  • For 7 days
  • Water Temperature
  • Satellite Maps
  • Weather Map
  • Weather Widgets
  • user-avatar
    Login

    Hourly Weather Mendoza

    Today, 16 December, Saturday

    Time Temperature Precipitation Wind Pressure Humidity
    00:00 +30°C° 0 mm 2 mps 693 mmHg 34%
    01:00 +30°C° 0 mm 2 mps 693 mmHg 35%
    02:00 +29°C° 0 mm 2 mps 693 mmHg 34%
    03:00 +29°C° 0 mm 2 mps 693 mmHg 34%
    04:00 +28°C° 0 mm 2 mps 692 mmHg 34%
    05:00 +30°C° 0 mm 2 mps 692 mmHg 32%
    06:00 +31°C° 0 mm 2 mps 692 mmHg 30%
    07:00 +32°C° 0 mm 2 mps 693 mmHg 28%
    08:00 +35°C° 0 mm 3 mps 692 mmHg 25%
    09:00 +36°C° 0 mm 3 mps 692 mmHg 22%
    10:00 +38°C° 0 mm 4 mps 692 mmHg 18%
    11:00 +39°C° 0 mm 3 mps 692 mmHg 17%
    12:00 +40°C° 0 mm 3 mps 692 mmHg 15%
    13:00 +42°C° 0 mm 3 mps 691 mmHg 13%
    14:00 +42°C° 0 mm 3 mps 691 mmHg 12%
    15:00 +42°C° 0 mm 3 mps 691 mmHg 10%
    16:00 +42°C° 0 mm 3 mps 691 mmHg 9%
    17:00 +41°C° 0 mm 4 mps 692 mmHg 10%
    18:00 +40°C° 0 mm 5 mps 692 mmHg 10%
    19:00 +37°C° 0 mm 5 mps 693 mmHg 11%
    20:00 +36°C° 0 mm 5 mps 693 mmHg 12%
    21:00 +35°C° 0 mm 5 mps 694 mmHg 13%
    22:00 +34°C° 0 mm 5 mps 694 mmHg 14%
    23:00 +32°C° 0.2 mm 7 mps 695 mmHg 19%

    Tomorrow, 17 December, Sunday

    Time Temperature Precipitation Wind Pressure Humidity
    00:00 +29°C° 0.2 mm 9 mps 695 mmHg 23%
    01:00 +27°C° 0.2 mm 11 mps 696 mmHg 28%
    02:00 +24°C° 0 mm 10 mps 697 mmHg 30%
    03:00 +21°C° 0 mm 8 mps 698 mmHg 31%
    04:00 +18°C° 0 mm 7 mps 699 mmHg 33%
    05:00 +17°C° 0 mm 6 mps 700 mmHg 31%
    06:00 +17°C° 0 mm 6 mps 700 mmHg 29%
    07:00 +17°C° 0 mm 5 mps 701 mmHg 27%
    08:00 +19°C° 0 mm 5 mps 701 mmHg 25%
    09:00 +20°C° 0 mm 4 mps 701 mmHg 24%
    10:00 +21°C° 0 mm 4 mps 701 mmHg 22%
    11:00 +22°C° 0 mm 4 mps 701 mmHg 21%
    12:00 +23°C° 0 mm 4 mps 701 mmHg 20%
    13:00 +25°C° 0 mm 4 mps 700 mmHg 19%
    14:00 +25°C° 0 mm 3 mps 700 mmHg 18%
    15:00 +25°C° 0 mm 3 mps 700 mmHg 18%
    16:00 +26°C° 0 mm 3 mps 699 mmHg 18%
    17:00 +25°C° 0 mm 3 mps 699 mmHg 19%
    18:00 +25°C° 0 mm 3 mps 700 mmHg 20%
    19:00 +24°C° 0 mm 2 mps 700 mmHg 21%
    20:00 +24°C° 0 mm 2 mps 700 mmHg 21%
    21:00 +23°C° 0 mm 2 mps 700 mmHg 22%
    22:00 +23°C° 0 mm 2 mps 701 mmHg 23%
    23:00 +21°C° 0 mm 2 mps 700 mmHg 24%

    Day after tomorrow, 18 December, Monday

    Time Temperature Precipitation Wind Pressure Humidity
    00:00 +21°C° 0 mm 2 mps 699 mmHg 25%
    01:00 +21°C° 0 mm 2 mps 698 mmHg 26%
    02:00 +20°C° 0 mm 2 mps 698 mmHg 27%
    03:00 +20°C° 0 mm 2 mps 697 mmHg 29%
    04:00 +20°C° 0 mm 2 mps 697 mmHg 30%
    05:00 +21°C° 0 mm 2 mps 697 mmHg 27%
    06:00 +24°C° 0 mm 3 mps 697 mmHg 24%
    07:00 +26°C° 0 mm 3 mps 698 mmHg 20%
    08:00 +27°C° 0 mm 4 mps 698 mmHg 19%
    09:00 +29°C° 0 mm 5 mps 698 mmHg 19%
    10:00 +32°C° 0 mm 5 mps 697 mmHg 18%
    11:00 +33°C° 0 mm 5 mps 697 mmHg 17%
    12:00 +34°C° 0 mm 5 mps 697 mmHg 17%
    13:00 +36°C° 0 mm 5 mps 696 mmHg 16%
    14:00 +36°C° 0 mm 5 mps 696 mmHg 17%
    15:00 +36°C° 0 mm 4 mps 696 mmHg 17%
    16:00 +36°C° 0 mm 4 mps 696 mmHg 17%
    17:00 +35°C° 0 mm 4 mps 696 mmHg 19%
    18:00 +34°C° 0 mm 4 mps 696 mmHg 20%
    19:00 +33°C° 0 mm 4 mps 697 mmHg 22%
    20:00 +33°C° 0 mm 4 mps 697 mmHg 24%
    21:00 +32°C° 0 mm 4 mps 697 mmHg 27%
    22:00 +30°C° 0 mm 4 mps 697 mmHg 30%
    23:00 +29°C° 0 mm 4 mps 697 mmHg 31%

    19 December, Tuesday

    Time Temperature Precipitation Wind Pressure Humidity
    00:00 +28°C° 0 mm 3 mps 696 mmHg 33%
    01:00 +28°C° 0 mm 3 mps 696 mmHg 35%
    02:00 +27°C° 0 mm 3 mps 696 mmHg 37%
    03:00 +26°C° 0 mm 2 mps 696 mmHg 40%
    04:00 +25°C° 0 mm 2 mps 696 mmHg 42%
    05:00 +26°C° 0 mm 2 mps 696 mmHg 40%
    06:00 +27°C° 0 mm 2 mps 697 mmHg 37%
    07:00 +28°C° 0 mm 3 mps 697 mmHg 35%
    08:00 +30°C° 0 mm 2 mps 697 mmHg 32%
    09:00 +31°C° 0 mm 2 mps 697 mmHg 30%
    10:00 +32°C° 0 mm 2 mps 697 mmHg 27%
    11:00 +34°C° 0 mm 3 mps 697 mmHg 26%
    12:00 +35°C° 0 mm 3 mps 697 mmHg 24%
    13:00 +36°C° 0 mm 3 mps 696 mmHg 23%
    14:00 +36°C° 0 mm 3 mps 696 mmHg 22%
    15:00 +37°C° 0 mm 4 mps 696 mmHg 22%
    16:00 +37°C° 0 mm 4 mps 696 mmHg 22%
    17:00 +36°C° 0 mm 3 mps 696 mmHg 23%
    18:00 +35°C° 0 mm 3 mps 696 mmHg 25%
    19:00 +34°C° 0 mm 2 mps 696 mmHg 26%
    20:00 +34°C° 0 mm 2 mps 697 mmHg 29%
    21:00 +32°C° 0 mm 2 mps 697 mmHg 32%
    22:00 +31°C° 0 mm 3 mps 697 mmHg 34%
    23:00 +31°C° 0.1 mm 3 mps 697 mmHg 36%

    20 December, Wednesday

    Time Temperature Precipitation Wind Pressure Humidity
    00:00 +30°C° 0.1 mm 3 mps 696 mmHg 38%
    01:00 +30°C° 0.1 mm 3 mps 696 mmHg 40%
    02:00 +29°C° 0 mm 3 mps 696 mmHg 41%
    03:00 +28°C° 0 mm 2 mps 695 mmHg 43%
    04:00 +28°C° 0 mm 2 mps 695 mmHg 45%
    05:00 +29°C° 0 mm 2 mps 696 mmHg 42%
    06:00 +30°C° 0 mm 2 mps 696 mmHg 38%
    07:00 +31°C° 0 mm 2 mps 696 mmHg 35%
    08:00 +34°C° 0 mm 3 mps 696 mmHg 31%
    09:00 +35°C° 0 mm 4 mps 696 mmHg 26%
    10:00 +37°C° 0 mm 5 mps 695 mmHg 22%
    11:00 +39°C° 0 mm 5 mps 695 mmHg 21%
    12:00 +40°C° 0 mm 6 mps 694 mmHg 19%
    13:00 +41°C° 0 mm 6 mps 693 mmHg 18%
    14:00 +41°C° 0 mm 6 mps 693 mmHg 18%
    15:00 +41°C° 0 mm 5 mps 693 mmHg 18%
    16:00 +41°C° 0 mm 5 mps 692 mmHg 19%
    17:00 +40°C° 0 mm 4 mps 693 mmHg 20%
    18:00 +38°C° 0 mm 4 mps 693 mmHg 22%
    19:00 +37°C° 0 mm 3 mps 693 mmHg 24%
    20:00 +36°C° 0.1 mm 3 mps 693 mmHg 26%
    21:00 +35°C° 0.1 mm 3 mps 693 mmHg 28%
    22:00 +34°C° 0.1 mm 4 mps 694 mmHg 30%
    23:00 +33°C° 0.2 mm 4 mps 693 mmHg 32%

    21 December, Thursday

    Time Temperature Precipitation Wind Pressure Humidity
    00:00 +33°C° 0.2 mm 4 mps 693 mmHg 35%
    01:00 +32°C° 0.2 mm 4 mps 693 mmHg 37%
    02:00 +29°C° 0.5 mm 4 mps 693 mmHg 41%
    03:00 +28°C° 0.5 mm 5 mps 694 mmHg 44%
    04:00 +27°C° 0.5 mm 6 mps 694 mmHg 48%
    05:00 +27°C° 0.1 mm 7 mps 694 mmHg 50%
    06:00 +28°C° 0.1 mm 8 mps 695 mmHg 52%
    07:00 +28°C° 0.1 mm 9 mps 696 mmHg 54%
    08:00 +29°C° 0.2 mm 9 mps 696 mmHg 52%
    09:00 +29°C° 0.2 mm 8 mps 696 mmHg 51%
    10:00 +29°C° 0.2 mm 8 mps 696 mmHg 49%
    11:00 +30°C° 0 mm 7 mps 696 mmHg 46%
    12:00 +32°C° 0 mm 6 mps 695 mmHg 43%
    13:00 +32°C° 0 mm 6 mps 695 mmHg 40%
    14:00 +32°C° 0.1 mm 5 mps 695 mmHg 40%
    15:00 +33°C° 0.1 mm 5 mps 695 mmHg 40%
    16:00 +33°C° 0.1 mm 5 mps 695 mmHg 40%
    17:00 +32°C° 0.1 mm 5 mps 695 mmHg 42%
    18:00 +30°C° 0.1 mm 4 mps 695 mmHg 45%
    19:00 +29°C° 0.1 mm 4 mps 695 mmHg 48%
    20:00 +29°C° 0 mm 3 mps 695 mmHg 50%
    21:00 +28°C° 0 mm 3 mps 695 mmHg 51%
    22:00 +28°C° 0 mm 2 mps 695 mmHg 53%
    23:00 +27°C° 0 mm 2 mps 695 mmHg 57%
    Show more